Weather in Sovkhozny

Russia / Sverdlovsk Oblast     56°33′19″N   61°26′37″E
temp.,
°C
wind,
m/s
gust,
m/s
humid.,
%
clouds,
%
prec.,
mm/h
press.,
hPa
HPBL,
m
4 july, mon
mon423:00+13nne4109679 0.9 1007386
02:00+11nne5109789 0.0 1007463
05:00+11ne6109496 0.0 1007645
08:00+11nne6119095 0.1 1009667
11:00+15ne786281 0.1 10081405
14:00+15nne6856100 0.0 10081728
17:00+14nne7859100 0.0 10091728
20:00+10nne61079100 0.1 1010884
5 july, tue
tue523:00+9n61179100 0.1 1010811
02:00+9nne51076100 0.0 1010850
05:00+10n51175100 0.0 1010660
08:00+10n51273100 0.0 1011665
11:00+13n685797 0.0 10111007
14:00+17n464637 0.0 10102003
17:00+18nne5645100 0.0 10102045
20:00+15n256899 0.0 1011113
6 july, wed
wed623:00+12nnw2267100 0.0 101224
02:00+10nw337482 0.0 101241
05:00+9nnw35926 0.0 101386
08:00+14nnw2372100 0.0 1013402
11:00+18n115489 0.0 10121377
14:00+18nnw336388 0.0 1013846
17:00+19nw115790 0.2 10131116
20:00+16nnw237956 0.3 1013114
7 july, thu
thu723:00+13nw228173 0.4 101540
02:00+11nw22880 0.0 101517
05:00+10nnw11900 0.0 101611
08:00+16nnw11735 0.0 1017267
11:00+20ene22550 0.0 10171070
14:00+22e225020 0.0 10171557
17:00+22ene21529 0.0 10171231
20:00+20ese22715 0.0 101733
8 july, fri
fri823:00+15ssw22840 0.0 101813
02:00+13wsw22902 0.0 101825
05:00+13wsw22870 0.0 101821
08:00+19wsw23710 0.0 1018278
11:00+23wnw23580 0.1 10171162
14:00+26nnw134637 0.1 10161871
17:00+25ssw235984 0.1 1015826
20:00+22sw25720 0.0 1015110